Radiation Dose at Monitoring Post of Fukushima Daini Nuclear Power Station
Date,Time,MP-1(microSv/h),MP-2(microSv/h),MP-3(microSv/h),MP-4(microSv/h),MP-5(microSv/h),MP-6(microSv/h),MP-7(microSv/h),Wind Direction,Wind Velocity(m/s),Rain
2013/09/29,00:00,0.9,0.6,0.9,0.8,0.8,0.4,0.3,south-southwest,2.2,No
2013/09/29,00:10,0.9,0.6,0.9,0.8,0.8,0.4,0.3,south-southwest,2.2,No
2013/09/29,00:20,0.9,0.6,0.9,0.8,0.8,0.4,0.3,south-southwest,1.8,No
2013/09/29,00:30,0.9,0.6,0.9,0.8,0.8,0.4,0.3,south-southwest,2.6,No
2013/09/29,00:40,0.9,0.6,0.9,0.8,0.8,0.4,0.3,south-southwest,2.1,No
2013/09/29,00:50,0.9,0.6,0.9,0.8,0.8,0.4,0.3,south-southwest,2.3,No
2013/09/29,01:00,0.9,0.6,0.9,0.8,0.8,0.4,0.3,south-southwest,1.9,No
2013/09/29,01:10,0.9,0.6,0.9,0.8,0.8,0.4,0.3,south-southwest,2.2,No
2013/09/29,01:20,0.9,0.6,0.9,0.8,0.8,0.4,0.3,south-southwest,1.9,No
2013/09/29,01:30,0.9,0.6,0.9,0.8,0.8,0.4,0.3,south-southwest,2.0,No
2013/09/29,01:40,0.9,0.6,0.9,0.8,0.8,0.4,0.3,south-southwest,1.9,No
2013/09/29,01:50,0.9,0.6,0.9,0.8,0.8,0.4,0.3,south-southwest,1.6,No
2013/09/29,02:00,0.9,0.6,0.9,0.8,0.8,0.4,0.3,south-southwest,1.7,No
2013/09/29,02:10,0.9,0.6,0.9,0.8,0.8,0.4,0.3,south-southwest,2.2,No
2013/09/29,02:20,0.9,0.6,0.9,0.8,0.8,0.4,0.3,south-southwest,2.5,No
2013/09/29,02:30,0.9,0.6,0.9,0.8,0.8,0.4,0.3,south-southwest,2.1,No
2013/09/29,02:40,0.9,0.6,0.9,0.8,0.8,0.4,0.3,south-southwest,2.1,No
2013/09/29,02:50,0.9,0.6,0.9,0.8,0.8,0.4,0.3,south-southwest,2.2,No
2013/09/29,03:00,0.9,0.6,0.9,0.8,0.8,0.4,0.3,south-southwest,2.3,No
2013/09/29,03:10,0.9,0.6,0.9,0.8,0.8,0.4,0.3,southwest,2.1,No
2013/09/29,03:20,0.9,0.6,0.9,0.8,0.8,0.4,0.3,south-southwest,1.8,No
2013/09/29,03:30,0.9,0.6,0.9,0.8,0.8,0.4,0.3,south-southwest,1.9,No
2013/09/29,03:40,0.9,0.6,0.9,0.8,0.8,0.4,0.3,south-southwest,1.8,No
2013/09/29,03:50,0.9,0.6,0.9,0.8,0.8,0.4,0.3,south-southwest,1.8,No
2013/09/29,04:00,0.9,0.6,0.9,0.8,0.8,0.4,0.3,south-southwest,1.5,No
2013/09/29,04:10,0.9,0.6,0.9,0.8,0.8,0.4,0.3,south-southwest,1.4,No
2013/09/29,04:20,0.9,0.6,0.9,0.8,0.8,0.4,0.3,south-southwest,1.6,No
2013/09/29,04:30,0.9,0.6,0.9,0.8,0.8,0.4,0.3,south-southwest,1.5,No
2013/09/29,04:40,0.9,0.6,0.9,0.8,0.8,0.4,0.3,south-southwest,1.4,No
2013/09/29,04:50,0.9,0.6,0.9,0.8,0.8,0.4,0.3,south-southwest,1.0,No
2013/09/29,05:00,0.9,0.6,0.9,0.8,0.8,0.4,0.3,south-southwest,1.6,No
2013/09/29,05:10,0.9,0.6,0.9,0.8,0.8,0.4,0.3,south-southwest,1.5,No
2013/09/29,05:20,0.9,0.6,0.9,0.8,0.8,0.4,0.3,south-southwest,1.3,No
2013/09/29,05:30,0.9,0.6,0.9,0.8,0.8,0.4,0.3,southwest,1.7,No
2013/09/29,05:40,0.9,0.6,0.9,0.8,0.8,0.4,0.3,southwest,1.1,No
2013/09/29,05:50,0.9,0.6,0.9,0.8,0.8,0.4,0.3,southwest,1.2,No
2013/09/29,06:00,0.9,0.6,0.9,0.8,0.8,0.4,0.3,southwest,1.7,No
2013/09/29,06:10,0.9,0.6,0.9,0.8,0.8,0.4,0.3,west-southwest,1.4,No
2013/09/29,06:20,0.9,0.6,0.9,0.8,0.8,0.4,0.3,southwest,1.0,No
2013/09/29,06:30,0.9,0.6,0.9,0.8,0.8,0.4,0.3,southwest,1.0,No
2013/09/29,06:40,0.9,0.6,0.9,0.8,0.8,0.4,0.3,southwest,1.4,No
2013/09/29,06:50,0.9,0.6,0.9,0.8,0.8,0.4,0.3,south-southwest,0.9,No
2013/09/29,07:00,0.9,0.6,0.9,0.8,0.8,0.4,0.3,south,0.7,No
2013/09/29,07:10,0.9,0.6,0.9,0.8,0.8,0.4,0.3,south-southwest,0.9,No
2013/09/29,07:20,0.9,0.6,0.9,0.8,0.8,0.4,0.3,southwest,1.0,No
2013/09/29,07:30,0.9,0.6,0.9,0.8,0.8,0.4,0.3,west-southwest,0.7,No
2013/09/29,07:40,0.9,0.6,0.9,0.8,0.8,0.4,0.3,-,CALM,No
2013/09/29,07:50,0.9,0.6,0.9,0.8,0.8,0.4,0.3,-,CALM,No
2013/09/29,08:00,0.9,0.6,0.9,0.8,0.8,0.4,0.3,southwest,0.8,No
2013/09/29,08:10,0.9,0.6,0.9,0.8,0.8,0.4,0.3,-,CALM,No
2013/09/29,08:20,0.9,0.6,0.9,0.8,0.8,0.4,0.3,-,CALM,No
2013/09/29,08:30,0.9,0.6,0.9,0.8,0.8,0.4,0.3,southeast,0.6,No
2013/09/29,08:40,0.9,0.6,0.9,0.8,0.8,0.4,0.3,east,1.7,No
2013/09/29,08:50,0.9,0.6,0.9,0.8,0.8,0.4,0.3,east-southeast,1.0,No
2013/09/29,09:00,0.9,0.6,0.9,0.8,0.8,0.4,0.3,south,1.0,No
2013/09/29,09:10,0.9,0.6,0.9,0.8,0.8,0.4,0.3,south-southeast,1.0,No
2013/09/29,09:20,0.9,0.6,0.9,0.8,0.8,0.4,0.3,east-northeast,2.4,No
2013/09/29,09:30,0.9,0.6,0.9,0.8,0.8,0.4,0.3,east,1.5,No
2013/09/29,09:40,0.9,0.6,0.9,0.8,0.8,0.4,0.3,east-northeast,1.9,No
2013/09/29,09:50,0.9,0.6,0.9,0.8,0.8,0.4,0.3,southeast,1.1,No
2013/09/29,10:00,0.9,0.6,0.9,0.8,0.8,0.4,0.3,east-southeast,1.1,No
2013/09/29,10:10,0.9,0.6,0.9,0.8,0.8,0.4,0.3,southeast,1.4,No
2013/09/29,10:20,0.9,0.6,0.9,0.8,0.8,0.4,0.3,southeast,1.6,No
2013/09/29,10:30,0.9,0.6,0.9,0.8,0.8,0.4,0.3,southeast,1.6,No
2013/09/29,10:40,0.9,0.6,0.9,0.8,0.8,0.4,0.3,south-southeast,1.9,No
2013/09/29,10:50,0.9,0.6,0.9,0.8,0.8,0.4,0.3,southeast,2.0,No
2013/09/29,11:00,0.9,0.6,0.9,0.8,0.8,0.4,0.3,south-southeast,1.9,No
2013/09/29,11:10,0.9,0.6,0.9,0.8,0.8,0.4,0.3,southeast,2.2,No
2013/09/29,11:20,0.9,0.6,0.9,0.8,0.8,0.4,0.3,southeast,1.8,No
2013/09/29,11:30,0.9,0.6,0.9,0.8,0.8,0.4,0.3,southeast,2.2,No
2013/09/29,11:40,0.9,0.6,0.9,0.8,0.8,0.4,0.3,southeast,2.5,No
2013/09/29,11:50,0.9,0.6,0.9,0.8,0.8,0.4,0.3,southeast,2.8,No
2013/09/29,12:00,0.9,0.6,0.9,0.8,0.8,0.4,0.3,southeast,2.5,No
2013/09/29,12:10,0.9,0.6,0.9,0.8,0.8,0.4,0.3,southeast,2.2,No
2013/09/29,12:20,0.9,0.6,0.9,0.8,0.8,0.4,0.3,southeast,2.1,No
2013/09/29,12:30,0.9,0.6,0.9,0.8,0.8,0.4,0.3,south-southeast,1.9,No
2013/09/29,12:40,0.9,0.6,0.9,0.8,0.8,0.4,0.3,south-southeast,2.0,No
2013/09/29,12:50,0.9,0.6,0.9,0.8,0.8,0.4,0.3,south-southeast,2.2,No
2013/09/29,13:00,0.9,0.6,0.9,0.8,0.8,0.4,0.3,south-southeast,2.8,No
2013/09/29,13:10,0.9,0.6,0.9,0.8,0.8,0.4,0.3,south-southeast,3.3,No
2013/09/29,13:20,0.9,0.6,0.9,0.8,0.8,0.4,0.3,southeast,2.8,No
2013/09/29,13:30,0.9,0.6,0.9,0.8,0.8,0.4,0.3,southeast,3.3,No
2013/09/29,13:40,0.9,0.6,0.9,0.8,0.8,0.4,0.3,south-southeast,2.2,No
2013/09/29,13:50,0.9,0.6,0.9,0.8,0.8,0.4,0.3,southeast,3.1,No
2013/09/29,14:00,0.9,0.6,0.9,0.8,0.8,0.4,0.3,southeast,3.0,No
2013/09/29,14:10,0.9,0.6,0.9,0.8,0.8,0.4,0.3,southeast,3.4,No
2013/09/29,14:20,0.9,0.6,0.9,0.8,0.8,0.4,0.3,southeast,3.0,No
2013/09/29,14:30,0.9,0.6,0.9,0.8,0.8,0.4,0.3,southeast,3.0,No
2013/09/29,14:40,0.9,0.6,0.9,0.8,0.8,0.4,0.3,southeast,3.2,No
2013/09/29,14:50,0.9,0.6,0.9,0.8,0.8,0.4,0.3,southeast,2.7,No
2013/09/29,15:00,0.9,0.6,0.9,0.8,0.8,0.4,0.3,southeast,2.5,No
2013/09/29,15:10,0.9,0.6,0.9,0.8,0.8,0.4,0.3,southeast,2.3,No
2013/09/29,15:20,0.9,0.6,0.9,0.8,0.8,0.4,0.3,southeast,1.8,No
2013/09/29,15:30,0.9,0.6,0.9,0.8,0.8,0.4,0.3,south,1.7,No
2013/09/29,15:40,0.9,0.6,0.9,0.8,0.8,0.4,0.3,southeast,1.5,No
2013/09/29,15:50,0.9,0.6,0.9,0.8,0.8,0.4,0.3,south-southeast,2.1,No
2013/09/29,16:00,0.9,0.6,0.9,0.8,0.8,0.4,0.3,southeast,2.9,No
2013/09/29,16:10,0.9,0.6,0.9,0.8,0.8,0.4,0.3,east-southeast,3.3,No
2013/09/29,16:20,0.9,0.6,0.9,0.8,0.8,0.4,0.3,southeast,3.3,No
2013/09/29,16:30,0.9,0.6,0.9,0.8,0.8,0.4,0.3,southeast,2.2,No
2013/09/29,16:40,0.9,0.6,0.9,0.8,0.8,0.4,0.3,southeast,3.0,No
2013/09/29,16:50,0.9,0.6,0.9,0.8,0.8,0.4,0.3,south-southeast,2.3,No
2013/09/29,17:00,0.9,0.6,0.9,0.8,0.8,0.4,0.3,south-southeast,2.5,No
2013/09/29,17:10,0.9,0.6,0.9,0.8,0.8,0.4,0.3,south-southeast,2.0,No
2013/09/29,17:20,0.9,0.6,0.9,0.8,0.8,0.4,0.3,south-southeast,2.2,No
2013/09/29,17:30,0.9,0.6,0.9,0.8,0.8,0.4,0.3,southeast,1.5,No
2013/09/29,17:40,0.9,0.6,0.9,0.8,0.8,0.4,0.3,southeast,1.7,No
2013/09/29,17:50,0.9,0.6,0.9,0.8,0.8,0.4,0.3,southeast,2.4,No
2013/09/29,18:00,0.9,0.6,0.9,0.8,0.8,0.4,0.3,southeast,2.2,No
2013/09/29,18:10,0.9,0.6,0.9,0.8,0.8,0.4,0.3,southeast,2.1,No
2013/09/29,18:20,0.9,0.6,0.9,0.8,0.8,0.4,0.3,southeast,2.6,No
2013/09/29,18:30,0.9,0.6,0.9,0.8,0.8,0.4,0.3,southeast,2.2,No
2013/09/29,18:40,0.9,0.6,0.9,0.8,0.8,0.4,0.3,south-southeast,1.9,No
2013/09/29,18:50,0.9,0.6,0.9,0.8,0.8,0.4,0.3,southeast,2.5,No
2013/09/29,19:00,0.9,0.6,0.9,0.8,0.8,0.4,0.3,south-southeast,1.9,No
2013/09/29,19:10,0.9,0.6,0.9,0.8,0.8,0.4,0.3,southeast,1.9,No
2013/09/29,19:20,0.9,0.6,0.9,0.8,0.8,0.4,0.3,south-southeast,2.1,No
2013/09/29,19:30,0.9,0.6,0.9,0.8,0.8,0.4,0.3,south,1.6,No
2013/09/29,19:40,0.9,0.6,0.9,0.8,0.8,0.4,0.3,south-southeast,1.2,No
2013/09/29,19:50,0.9,0.6,0.9,0.8,0.8,0.4,0.3,south-southeast,1.5,No
2013/09/29,20:00,0.9,0.6,0.9,0.8,0.8,0.4,0.3,south-southwest,1.7,No
2013/09/29,20:10,0.9,0.6,0.9,0.8,0.8,0.4,0.3,south,1.7,No
2013/09/29,20:20,0.9,0.6,0.9,0.8,0.8,0.4,0.3,south,1.0,No
2013/09/29,20:30,0.9,0.6,0.9,0.8,0.8,0.4,0.3,south,1.0,No
2013/09/29,20:40,0.9,0.6,0.9,0.8,0.8,0.4,0.3,south-southeast,1.4,No
2013/09/29,20:50,0.9,0.6,0.9,0.8,0.8,0.4,0.3,southeast,1.6,No
2013/09/29,21:00,0.9,0.6,0.9,0.8,0.8,0.4,0.3,south-southeast,1.6,No
2013/09/29,21:10,0.9,0.6,0.9,0.8,0.8,0.4,0.3,south,1.6,No
2013/09/29,21:20,0.9,0.6,0.9,0.8,0.8,0.4,0.3,south,1.5,No
2013/09/29,21:30,0.9,0.6,0.9,0.8,0.8,0.4,0.3,south-southwest,1.5,No
2013/09/29,21:40,0.9,0.6,0.9,0.8,0.8,0.4,0.3,south-southeast,1.4,No
2013/09/29,21:50,0.9,0.6,0.9,0.8,0.8,0.4,0.3,southeast,1.4,No
2013/09/29,22:00,0.9,0.6,0.9,0.8,0.8,0.4,0.3,southeast,1.8,No
2013/09/29,22:10,0.9,0.6,0.9,0.8,0.8,0.4,0.3,southeast,1.9,No
2013/09/29,22:20,0.9,0.6,0.9,0.8,0.8,0.4,0.3,south-southeast,1.3,No
2013/09/29,22:30,0.9,0.6,0.9,0.8,0.8,0.4,0.3,south-southeast,1.0,No
2013/09/29,22:40,0.9,0.6,0.9,0.8,0.8,0.4,0.3,south-southeast,1.3,No
2013/09/29,22:50,0.9,0.6,0.9,0.8,0.8,0.4,0.3,south-southeast,1.4,No
2013/09/29,23:00,0.9,0.6,0.9,0.8,0.8,0.4,0.3,south-southeast,1.3,No
2013/09/29,23:10,0.9,0.6,0.9,0.8,0.8,0.4,0.3,southeast,1.4,No
2013/09/29,23:20,0.9,0.6,0.9,0.8,0.8,0.4,0.3,-,CALM,No
2013/09/29,23:30,0.9,0.6,0.9,0.8,0.8,0.4,0.3,southwest,0.7,No
2013/09/29,23:40,0.9,0.6,0.9,0.8,0.8,0.4,0.3,south-southwest,1.0,No
2013/09/29,23:50,0.9,0.6,0.9,0.8,0.8,0.4,0.3,south,0.7,No
